User: anonymous   Login
Location: Unspecified
(0.0000°N, 0.0000°E)
Time: 20:42:34
(UTC+00:00)
Language:

COSMOS 2507 - Orbit

View from above orbital plane
View from above orbital plane
View from above satellite
View from above satellite

Ground track
Ground track

The orbit data is extracted from the following two-line orbital elements,

1 40920U 15050A   21020.13536183  .00000040  00000-0  21962-3 0  9998
2 40920  82.4908 228.5741 0009068 336.0059  24.0596 12.42878608241656
Epoch (UTC): 20 January 2021 03:14:55
Eccentricity: 0.0009068
inclination: 82.4908°
perigee height: 1487 km
apogee height: 1501 km
right ascension of ascending node: 228.5741°
argument of perigee: 336.0059°
revolutions per day: 12.42878608
mean anomaly at epoch: 24.0596°
orbit number at epoch: 24165

The dashed part of the orbit path shows where the satellite is in the earth's shadow,  

DLR